INTELSAT 902 (IS-902) 1 26900U 01039A 26161.54387561 -.00000268 00000+0 00000+0 0 9990 2 26900 6.1014 71.8642 0004481 3.8108 328.9149 1.00272398 90621 INTELSAT 904 (IS-904) 1 27380U 02007A 26161.04856463 -.00000210 00000+0 00000+0 0 9993 2 27380 6.9013 69.2690 0006669 1.5212 173.6141 1.00272517 51690 DIRECTV 5 (TEMPO 1) 1 27426U 02023A 26161.34072644 -.00000041 00000+0 00000+0 0 9998 2 27426 4.8594 75.3941 0003291 15.1698 180.6971 1.00271485 88058 INTELSAT 905 (IS-905) 1 27438U 02027A 26161.43030926 .00000108 00000+0 00000+0 0 9995 2 27438 6.7358 69.8797 0003904 16.3553 190.2516 1.00271189 51290 GALAXY 3C (G-3C) 1 27445U 02030A 26161.32110767 -.00000136 00000+0 00000+0 0 9999 2 27445 3.7124 78.0665 0001695 32.8303 168.5370 1.00271349 46426 INTELSAT 906 (IS-906) 1 27513U 02041A 26161.21009809 .00000029 00000+0 00000+0 0 9999 2 27513 5.7858 73.0072 0004663 359.9055 325.4249 1.00271538 86951 GALAXY 13 (HORIZONS-1) 1 27954U 03044A 26161.52411552 .00000150 00000+0 00000+0 0 9993 2 27954 1.4029 83.9416 0002118 352.7194 220.9080 1.00274235 46509 INTELSAT 10-02 1 28358U 04022A 26161.41097747 .00000006 00000+0 00000+0 0 9993 2 28358 0.0147 325.8765 0000196 212.9419 226.8974 1.00269703 80486 DIRECTV 8 1 28659U 05019A 26161.53026888 .00000019 00000+0 00000+0 0 9999 2 28659 0.0151 28.1346 0002892 54.9636 247.6417 1.00271749 77003 GALAXY 28 (G-28) 1 28702U 05022A 26161.47719218 -.00000183 00000+0 00000+0 0 9994 2 28702 3.2822 79.0142 0002849 356.7937 327.7156 1.00272036 51901 GALAXY 16 (G-16) 1 29236U 06023A 26161.53416890 .00000000 00000+0 00000+0 0 9993 2 29236 0.0121 55.1058 0002428 30.3002 266.7817 1.00269827 72906 DIRECTV 9S 1 29494U 06043A 26161.53373557 -.00000096 00000+0 00000+0 0 9999 2 29494 2.4027 80.9801 0004950 8.6390 260.2331 1.00271123 51319 GALAXY 17 (G-17) 1 31307U 07016B 26161.46566545 -.00000189 00000+0 00000+0 0 9992 2 31307 2.9542 79.9831 0004805 18.0662 243.4248 1.00270850 69730 INTELSAT 11 (IS-11) 1 32253U 07044B 26161.51321569 -.00000257 00000+0 00000+0 0 9991 2 32253 3.5472 78.7487 0002006 86.5430 73.5052 0.99053336 68388 HORIZONS-2 1 32388U 07063B 26161.53919559 -.00000237 00000+0 00000+0 0 9993 2 32388 2.5841 80.7054 0003871 357.3899 301.1453 1.00270900 67743 DIRECTV 11 1 32729U 08013A 26161.46289211 -.00000108 00000+0 00000+0 0 9992 2 32729 0.0128 233.9755 0000344 156.3804 295.9321 1.00271899 45522 GALAXY 18 (G-18) 1 32951U 08024A 26161.52948888 .00000042 00000+0 00000+0 0 9996 2 32951 0.0186 318.9668 0003107 132.7349 234.8109 1.00272644 45785 INTELSAT 25 (IS-25) 1 33153U 08034A 26161.51243569 -.00000263 00000+0 00000+0 0 9991 2 33153 2.6914 80.4448 0002980 51.9658 102.2722 0.99036636 65627 GALAXY 19 (G-19) 1 33376U 08045A 26161.53460223 -.00000122 00000+0 00000+0 0 9994 2 33376 0.0126 277.9937 0002644 161.3876 274.9798 1.00270927 64830 FM-5 1 35493U 09034A 26161.53676891 -.00000183 00000+0 00000+0 0 9992 2 35493 0.0165 294.4785 0000650 355.8501 75.6595 1.00270546 46579 INTELSAT 14 (IS-14) 1 36097U 09064A 26161.47337883 -.00000256 00000+0 00000+0 0 9995 2 36097 0.0176 350.5521 0002723 106.7049 286.9952 1.00269815 60530 INTELSAT 15 (IS-15) 1 36106U 09067A 26161.49940784 -.00000167 00000+0 00000+0 0 9992 2 36106 0.0165 355.9709 0002184 87.9052 79.9203 1.00270726 41161 DIRECTV 12 1 36131U 09075A 26161.46219877 -.00000086 00000+0 00000+0 0 9998 2 36131 0.0318 158.8061 0000301 239.6820 284.0043 1.00272017 46484 INTELSAT 16 (IS-16) 1 36397U 10006A 26161.32483435 -.00000227 00000+0 00000+0 0 9993 2 36397 0.0079 326.9433 0002114 132.6639 199.8215 1.00269318 59586 XM-5 1 37185U 10053A 26161.59071329 -.00000005 00000+0 00000+0 0 9999 2 37185 0.0645 273.7385 0002952 284.8294 157.8394 1.00269640 57413 INTELSAT 17 (IS-17) 1 37238U 10065B 26161.46850265 .00000016 00000+0 00000+0 0 9992 2 37238 0.0097 125.3619 0002540 323.6570 44.4737 1.00272832 53186 INTELSAT 28 (IS-28) 1 37392U 11016A 26161.33367440 -.00000208 00000+0 00000+0 0 9998 2 37392 1.7876 82.7052 0003727 1.5407 262.8702 1.00271753 53219 INTELSAT 18 (IS-18) 1 37834U 11056A 26160.87655971 .00000070 00000+0 00000+0 0 9996 2 37834 0.0170 310.4216 0002098 144.0429 299.3507 1.00272225 53739 INTELSAT 22 (IS-22) 1 38098U 12011A 26161.56808466 -.00000041 00000+0 00000+0 0 9996 2 38098 0.0114 332.6438 0001509 101.2304 101.6413 1.00272131 7124 INTELSAT 19 (IS-19) 1 38356U 12030A 26161.53169728 -.00000039 00000+0 00000+0 0 9999 2 38356 0.0142 330.0554 0002984 117.6834 168.5701 1.00271860 50386 INTELSAT 20 (IS-20) 1 38740U 12043A 26161.56739133 -.00000008 00000+0 00000+0 0 9992 2 38740 0.0068 107.3960 0001960 70.9558 353.3520 1.00273748 50686 INTELSAT 21 (IS-21) 1 38749U 12045A 26161.25717292 -.00000267 00000+0 00000+0 0 9998 2 38749 0.0227 283.3658 0001677 177.3275 192.4944 1.00267022 50459 INTELSAT 23 (IS-23) 1 38867U 12057A 26161.47199215 -.00000267 00000+0 00000+0 0 9995 2 38867 0.0165 301.3685 0000070 149.1793 285.2116 1.00268879 49888 FM-6 1 39360U 13058A 26159.62959519 .00000003 00000+0 00000+0 0 9998 2 39360 0.0107 82.6412 0002771 69.5183 215.1325 1.00255605 45982 INTELSAT 30 (IS-30) 1 40271U 14062A 26161.03591126 -.00000132 00000+0 00000+0 0 9995 2 40271 0.0228 41.0330 0000821 352.5032 142.6782 1.00267059 6725 DIRECTV 14 1 40333U 14078B 26160.05357880 -.00000109 00000+0 00000+0 0 9993 2 40333 0.0091 1.3268 0000235 206.1301 330.0282 1.00271044 41965 DIRECTV 15 1 40663U 15026A 26161.53347557 -.00000085 00000+0 00000+0 0 9990 2 40663 0.0040 69.2590 0000620 215.6549 63.1643 1.00269381 40395 SKY MEXICO-1 1 40664U 15026B 26161.46687880 -.00000217 00000+0 00000+0 0 9996 2 40664 0.0152 313.3590 0002090 144.8005 249.9482 1.00270836 40387 INTELSAT 34 (IS-34) 1 40874U 15039A 26161.32890771 -.00000268 00000+0 00000+0 0 9999 2 40874 0.0112 323.8665 0000357 11.9971 345.7535 1.00270209 39561 INTELSAT 31 (IS-31) 1 41581U 16035A 26161.53486223 -.00000133 00000+0 00000+0 0 9999 2 41581 0.0159 267.2572 0001005 335.2563 113.8830 1.00269670 36611 INTELSAT 36 (IS-36) 1 41747U 16053A 26161.56739133 -.00000007 00000+0 00000+0 0 9997 2 41747 0.0119 0.9491 0001854 332.4947 198.2350 1.00270452 35893 INTELSAT 32E (IS-32E) 1 41945U 17007B 26160.08652259 -.00000252 00000+0 00000+0 0 9998 2 41945 0.0023 348.0424 0000672 336.8096 280.6015 1.00274840 34145 INTELSAT 35E (IS-35E) 1 42818U 17041A 26161.47571884 -.00000220 00000+0 00000+0 0 9999 2 42818 0.0045 72.9661 0001663 5.0881 317.5690 1.00271241 32748 INTELSAT 37E (IS-37E) 1 42950U 17059A 26161.31711630 -.00000123 00000+0 00000+0 0 9995 2 42950 0.0043 78.2474 0002381 24.2615 252.3325 1.00270044 31997 AZERSPACE 2 (IS-38) 1 43632U 18074A 26161.56271131 .00000154 00000+0 00000+0 0 9998 2 43632 0.0027 66.4415 0001236 15.4806 64.6887 1.00271783 28380 HORIZONS-3E 1 43633U 18074B 26160.16142285 -.00000014 00000+0 00000+0 0 9997 2 43633 0.0093 158.1609 0000957 124.5481 201.9406 1.00270197 28266 AT&T T-16 1 44333U 19034A 26160.67834545 -.00000098 00000+0 00000+0 0 9997 2 44333 0.0247 68.1337 0000640 190.5571 142.7032 1.00268740 25552 INTELSAT 39 (IS-39) 1 44476U 19049B 26161.62129983 .00000051 00000+0 00000+0 0 9998 2 44476 0.0197 325.9148 0000927 346.0260 232.6606 1.00270455 25067 GALAXY 30 (G-30) 1 46114U 20056C 26161.52905554 .00000054 00000+0 00000+0 0 9997 2 46114 0.0198 326.7998 0002095 108.4349 249.1236 1.00273494 21229 GALAXY 33 (G-33) 1 54026U 22128A 26161.52749553 .00000096 00000+0 00000+0 0 9991 2 54026 0.0098 321.0796 0001783 125.2269 229.4963 1.00271671 13677 GALAXY 34 (G-34) 1 54027U 22128B 26159.95980211 .00000075 00000+0 00000+0 0 9991 2 54027 0.0154 329.7482 0001861 136.9348 7.2031 1.00274719 13834 GALAXY 31 (G-31) 1 54243U 22153A 26161.52983554 .00000031 00000+0 00000+0 0 9990 2 54243 0.0157 293.2466 0001216 145.3680 250.0248 1.00272160 7065 GALAXY 32 (G-32) 1 54244U 22153B 26160.32382733 -.00000157 00000+0 00000+0 0 9990 2 54244 0.0091 331.9838 0002164 65.0548 246.2445 1.00270919 13063 GALAXY 35 (G-35) 1 54741U 22170A 26160.45862207 -.00000145 00000+0 00000+0 0 9991 2 54741 0.0337 106.4075 0002031 335.1959 248.2408 1.00271145 12811 GALAXY 36 (G-36) 1 54742U 22170B 26161.53616225 -.00000168 00000+0 00000+0 0 9994 2 54742 0.0087 45.7232 0002590 38.5791 278.6131 1.00270422 12707 GALAXY 37 (G-37) 1 57493U 23112A 26161.52862220 .00000065 00000+0 00000+0 0 9999 2 57493 0.0187 358.7648 0001877 81.5866 241.8482 1.00272044 10475